Погода в Таганроге

Россия / Ростовская область     47°13′15″N   38°55′02″E
темп.,
°C
ветер,
м/с
пор.,
м/с
влажн.,
%
обл.,
%
осадки,
мм/ч
давл.,
гПа
погр.,
м
6 мая, чт
чт600:00+12в45595 0.0 1016104
03:00+11вюв466666 0.0 1016143
06:00+11вюв4769100 0.0 1015215
09:00+14вюв6859100 0.0 1015473
12:00+17юв5751100 0.0 1014829
15:00+18юв4652100 0.0 1012933
18:00+18юв236095 0.0 1012221
21:00+16ююв2265100 0.0 101214
7 мая, пт
пт700:00+14зюз347494 0.0 101272
03:00+12з356299 0.0 1013109
06:00+12зсз3466100 0.0 1014106
09:00+16зсз236129 0.0 1015406
12:00+18юз3459100 0.1 10161233
15:00+17юз556384 0.1 1016526
18:00+18зюз335760 0.0 1016147
21:00+15зюз226743 0.0 101721
8 мая, сб
сб800:00+14ююз1175100 0.0 101612
03:00+14ююв3478100 0.0 1015107
06:00+14ю3469100 0.0 1015144
09:00+15ю4671100 0.0 1015348
12:00+18ю4660100 0.0 1014558
15:00+20юз46535 0.0 1012782
18:00+19зюз45563 0.0 1011285
21:00+16зсз226316 0.1 101121
9 мая, вс
вс900:00+13ссз61084100 0.7 1010301
03:00+12с91288100 2.9 1011616
06:00+8с121890100 5.8 1011767
09:00+7с131889100 9.6 1013898
12:00+7ссз91489100 5.6 10171046
15:00+10ссз91372100 6.9 10191491
18:00+11ссз4967100 0.0 10201195
21:00+10сз5971100 0.4 1022517
10 мая, пн
пн1000:00+9сз61175100 0.1 1022432
03:00+8сз71274100 0.1 1022472
06:00+8сз71273100 0.0 1022575
09:00+8сз91583100 1.1 10201225
12:00+7ссз91491100 3.3 10191005
15:00+8сз71190100 5.9 1017795
18:00+8сз61195100 9.1 1016488
21:00+9ссз51095100 14.4 1015523